Weather History for Penn Yan, NY

Change the Weather History Date:

Saturday, March 29, 2014

  Actual Average (KITH) Record (KITH)
Temperature  
Mean Temperature 36 °F -  
Max Temperature 39 °F 49 °F 82 °F (1946)
Min Temperature 33 °F 29 °F 1 °F (1959)
Degree Days  
Heating Degree Days 29    
Moisture  
Dew Point 32 °F    
Average Humidity 86    
Maximum Humidity 96    
Minimum Humidity 76    
Precipitation  
Precipitation 1.12 in - - ()
Sea Level Pressure  
Sea Level Pressure 30.07 in    
Wind  
Wind Speed 4 mph (North)    
Max Wind Speed 9 mph    
Max Gust Speed 16 mph    
Visibility 6 miles    
Events Rain , Snow    
Averages and records for this station are not official NWS values.
T = Trace of Precipitation, MM = Missing Value Source: NWS Daily Summary

Daily Weather History Graph

Daily Weather History Graph

Search for Another Location

Airport:

Trip Planner

Search our weather history database for the weather conditions in past years. The results will help you decide how hot, cold, wet, or windy it might be!

Date:

Astronomy

Mar. 29, 2014 Rise Set
Actual Time 6:55 AM EDT 7:30 PM EDT
Civil Twilight 6:27 AM EDT 7:59 PM EDT
Nautical Twilight 5:53 AM EDT 8:32 PM EDT
Astronomical Twilight 5:19 AM EDT 9:07 PM EDT
Moon 6:04 AM EDT (3/29) 6:32 PM EDT (3/29)
Length of Visible Light 13h 31m
Length of Day
12h 35m
Waning Crescent, 2% of the Moon is Illuminated
Mar 29
Waning Crescent
Mar 30
New
Apr 7
First Quarter
Apr 15
Full
Apr 22
Last Quarter

Hourly Weather History & Observations

Time (EDT) Temp. Windchill Dew Point Humidity Pressure Visibility Wind Dir Wind Speed Gust Speed Precip Events Conditions
12:08 AM 39.9 °F 36.7 °F 34.0 °F 79% 30.16 in 10.0 mi Variable 4.6 mph - N/A   Overcast
12:53 AM 37.9 °F 33.5 °F 32.0 °F 79% 30.19 in 10.0 mi NNW 5.8 mph - N/A   Overcast
1:19 AM 37.0 °F 34.5 °F 30.9 °F 79% 30.18 in 10.0 mi NW 3.5 mph - N/A   Overcast
1:53 AM 37.0 °F 34.5 °F 30.9 °F 79% 30.23 in 10.0 mi WNW 3.5 mph - N/A   Overcast
2:53 AM 37.0 °F - 30.0 °F 76% 30.21 in 10.0 mi Calm Calm - N/A   Overcast
3:53 AM 36.0 °F - 30.0 °F 79% 30.22 in 10.0 mi Calm Calm - N/A   Overcast
4:53 AM 36.0 °F - 30.0 °F 79% 30.21 in 10.0 mi Calm Calm - N/A   Overcast
5:53 AM 36.0 °F 33.3 °F 28.9 °F 76% 30.21 in 10.0 mi North 3.5 mph - N/A   Overcast
6:53 AM 36.0 °F 33.3 °F 28.9 °F 76% 30.21 in 10.0 mi North 3.5 mph - N/A   Overcast
7:50 AM 35.6 °F - 30.2 °F 81% 30.21 in 8.0 mi Calm Calm - N/A   Overcast
7:53 AM 35.1 °F - 30.0 °F 82% 30.23 in 8.0 mi Calm Calm - N/A   Overcast
8:27 AM 36.0 °F - 30.9 °F 82% 30.22 in 8.0 mi Calm Calm - N/A   Overcast
8:37 AM 36.0 °F - 30.9 °F 82% 30.22 in 8.0 mi Calm Calm - N/A   Overcast
8:53 AM 36.0 °F 33.3 °F 30.9 °F 82% 30.25 in 7.0 mi ESE 3.5 mph - N/A   Overcast
9:13 AM 36.0 °F - 30.9 °F 82% 30.21 in 7.0 mi Calm Calm - N/A   Overcast
9:53 AM 36.0 °F 33.3 °F 30.9 °F 82% 30.22 in 8.0 mi Variable 3.5 mph - N/A   Overcast
10:30 AM 37.9 °F 35.5 °F 32.0 °F 79% 30.18 in 8.0 mi East 3.5 mph - N/A   Overcast
10:53 AM 39.0 °F 34.8 °F 32.0 °F 76% 30.19 in 9.0 mi East 5.8 mph - N/A   Overcast
11:16 AM 37.9 °F 33.5 °F 32.0 °F 79% 30.16 in 10.0 mi East 5.8 mph - N/A   Overcast
11:53 AM 39.0 °F 34.8 °F 32.0 °F 76% 30.17 in 10.0 mi NE 5.8 mph - N/A   Overcast
12:53 PM 39.0 °F 34.0 °F 32.0 °F 76% 30.16 in 10.0 mi NNE 6.9 mph - N/A   Overcast
1:53 PM 39.0 °F 33.4 °F 32.0 °F 76% 30.12 in 10.0 mi NE 8.1 mph - N/A   Overcast
2:49 PM 37.4 °F - 33.8 °F 87% 30.07 in 2.0 mi Calm Calm - 0.04 in Rain Rain
2:53 PM 37.0 °F - 34.0 °F 89% 30.09 in 2.0 mi Calm Calm - 0.05 in Rain Rain
2:55 PM 37.0 °F - 34.0 °F 89% 30.06 in 3.0 mi Calm Calm - 0.00 in Rain Rain
3:14 PM 37.0 °F 31.6 °F 34.0 °F 89% 30.05 in 8.0 mi Variable 6.9 mph - 0.00 in   Overcast
3:53 PM 37.0 °F 32.4 °F 34.0 °F 89% 30.05 in 6.0 mi Variable 5.8 mph - 0.00 in Rain Light Rain
4:21 PM 37.0 °F 33.3 °F 34.0 °F 89% 30.01 in 6.0 mi Variable 4.6 mph - 0.00 in Rain Light Rain
4:43 PM 36.0 °F 31.1 °F 34.0 °F 93% 30.00 in 3.0 mi North 5.8 mph - 0.00 in Rain Light Rain
4:47 PM 35.6 °F 30.7 °F 33.8 °F 93% 29.99 in 2.0 mi Variable 5.8 mph - 0.01 in Rain Rain
4:53 PM 36.0 °F 33.3 °F 34.0 °F 93% 30.01 in 1.2 mi Variable 3.5 mph - 0.02 in Rain Rain
5:12 PM 35.1 °F 30.1 °F 34.0 °F 96% 29.99 in 2.0 mi NNW 5.8 mph - 0.02 in Rain Light Rain
5:25 PM 35.1 °F 29.3 °F 34.0 °F 96% 29.99 in 1.8 mi Variable 6.9 mph - 0.04 in Rain Rain
5:53 PM 34.0 °F 28.0 °F 33.1 °F 96% 30.01 in 1.2 mi Variable 6.9 mph - 0.13 in Rain Heavy Rain
6:06 PM 34.0 °F 27.2 °F 32.0 °F 92% 29.96 in 1.5 mi North 8.1 mph - 0.03 in Rain Rain
6:20 PM 34.0 °F 28.0 °F 32.0 °F 92% 29.97 in 2.5 mi North 6.9 mph - 0.04 in Rain Light Rain
6:27 PM 34.0 °F 27.2 °F 32.0 °F 92% 29.97 in 2.5 mi North 8.1 mph - 0.04 in Rain Light Rain
6:34 PM 34.0 °F 27.2 °F 32.0 °F 92% 29.96 in 1.8 mi North 8.1 mph - 0.06 in Rain Rain
6:53 PM 34.0 °F 26.6 °F 32.0 °F 92% 29.99 in 1.5 mi North 9.2 mph - 0.10 in Rain Rain
7:03 PM 34.0 °F 28.0 °F 32.0 °F 92% 29.95 in 2.0 mi North 6.9 mph - 0.01 in Rain Rain
7:26 PM 34.0 °F 27.2 °F 32.0 °F 92% 29.94 in 3.0 mi North 8.1 mph - 0.05 in Rain Rain
7:53 PM 34.0 °F 26.6 °F 32.0 °F 92% 29.95 in 3.0 mi North 9.2 mph - 0.11 in Rain Rain
8:53 PM 34.0 °F 28.8 °F 32.0 °F 92% 29.94 in 3.0 mi North 5.8 mph - 0.16 in Rain Rain
9:53 PM 33.1 °F 25.5 °F 30.9 °F 92% 29.90 in 3.0 mi North 9.2 mph - 0.21 in Rain Rain
10:48 PM 33.8 °F 27.0 °F 30.2 °F 87% 29.87 in 4.0 mi North 8.1 mph - 0.15 in Rain Light Freezing Rain
10:53 PM 33.1 °F 26.1 °F 30.9 °F 92% 29.90 in 4.0 mi North 8.1 mph - 0.17 in Rain Light Freezing Rain
11:06 PM 33.1 °F 26.9 °F 30.9 °F 92% 29.86 in 4.0 mi North 6.9 mph - 0.05 in Snow Light Snow
11:35 PM 33.1 °F 27.7 °F 30.9 °F 92% 29.86 in 4.0 mi Variable 5.8 mph - 0.13 in Snow Light Snow
11:53 PM 33.1 °F 26.9 °F 30.9 °F 92% 29.87 in 3.0 mi Variable 6.9 mph 16.1 mph 0.17 in Snow Light Snow